Location: Creola (historical)
(38.1334°N, 100.5024°W)
Time: 00:36:39
(UTC+00:00)

Cosmos 1626 - Pass Details

Date: 18 October 2021
Orbit: 487 x 492 km, 82.5° (Epoch: 28 November)

Event Time Altitude Azimuth Distance (km) Brightness Sun altitude
Rises 12:12:21 0° 196° (SSW) 2,555 5.6 -8.9°
Reaches altitude 10° 12:14:29 10° 201° (SSW) 1,679 4.6 -8.5°
Maximum altitude 12:18:04 53° 279° (W) 613 2.2 -7.8°
Drops below altitude 10° 12:21:43 10° 357° (N) 1,694 4.7 -7.1°
Sets 12:23:52 0° 2° (N) 2,581 5.7 -6.7°
